Location: Armidale
(30.5016°S, 151.6662°E)
Time: 04:23:59
(UTC+10:00)

LightSail 2 - Visible Passes

Search period start: 04 August 2020 00:00
Search period end: 14 August 2020 00:00
Orbit: 698 x 714 km, 24.0° (Epoch: 02 August)

Date Brightness Start Highest point End Pass type
(mag) Time Alt. Az. Time Alt. Az. Time Alt. Az.
04 Aug 7.3 05:05:56 10° NNW 05:09:27 19° NNE 05:12:57 10° ENE visible
05 Aug 7.5 04:09:05 14° NNE 04:09:18 14° NNE 04:11:56 10° NE visible
05 Aug 6.7 05:49:42 10° NW 05:54:08 30° NNE 05:58:34 10° ENE visible
06 Aug 6.8 04:51:37 18° NNW 04:53:56 25° NNE 04:58:06 10° ENE visible
07 Aug 7.4 03:55:12 18° NE 03:55:12 18° NE 03:57:29 10° ENE visible
07 Aug 6.3 05:34:02 10° WNW 05:38:40 36° N 05:43:19 10° ENE visible
08 Aug 6.3 04:37:34 30° N 04:38:26 32° N 04:42:57 10° ENE visible
09 Aug 7.6 03:41:01 17° ENE 03:41:01 17° ENE 03:42:30 10° ENE visible
09 Aug 6.1 05:19:50 18° WNW 05:23:11 40° N 05:27:57 10° ENE visible
10 Aug 6.1 04:23:15 37° NNE 04:23:15 37° NNE 04:27:37 10° ENE visible
10 Aug 6.2 06:03:12 10° WNW 06:07:57 38° N 06:12:40 10° ENE visible
11 Aug 7.9 03:26:37 13° ENE 03:26:37 13° ENE 03:27:14 10° ENE visible
11 Aug 6.0 05:05:25 26° NW 05:07:40 40° N 05:12:26 10° ENE visible
12 Aug 6.5 04:08:46 33° NE 04:08:46 33° NE 04:12:09 10° ENE visible
12 Aug 6.3 05:47:47 10° WNW 05:52:23 33° N 05:56:57 10° NE visible
13 Aug 6.0 04:50:53 33° NW 04:52:05 37° N 04:56:48 10° ENE visible
